This is the latest recevied weather packets stored in our database for station/object PY2FGD-13. If no packets are shown the sender has not sent any weather packets the latest 10 day(s).
| Time | Temp. | Humidity | Pressure | Rain* | Wind** | Luminosity | Snow |
|---|---|---|---|---|---|---|---|
| 1778020671 | 23.33° C | 82% | 1019.7 hPa | - | - | - | - |
| 1778020085 | 23.33° C | 82% | 1019.6 hPa | - | - | - | - |
| 1778014669 | 23.33° C | 76% | 1019 hPa | - | - | - | - |
| 1778013468 | 23.33° C | 75% | 1018.9 hPa | - | - | - | - |
| 1778011668 | 22.78° C | 75% | 1018.7 hPa | - | - | - | - |
| 1778009869 | 22.78° C | 75% | 1018.8 hPa | - | - | - | - |
| 1778005669 | 22.78° C | 76% | 1018.8 hPa | - | - | - | - |
| 1778005070 | 22.78° C | 76% | 1018.9 hPa | - | - | - | - |
| 1778000869 | 22.78° C | 76% | 1019.3 hPa | - | - | - | - |
| 1777998472 | 22.78° C | 76% | 1019.6 hPa | - | - | - | - |
| 1777997885 | 22.78° C | 76% | 1019.7 hPa | - | - | - | - |
| 1777993068 | 22.78° C | 77% | 1020.8 hPa | - | - | - | - |
| 1777986468 | 22.22° C | 78% | 1021.5 hPa | - | - | - | - |
| 1777985868 | 22.22° C | 79% | 1021.4 hPa | - | - | - | - |
| 1777985268 | 22.22° C | 80% | 1021.4 hPa | - | - | - | - |
| 1777984068 | 21.67° C | 81% | 1021.3 hPa | - | - | - | - |
| 1777980468 | 21.11° C | 86% | 1020.9 hPa | - | - | - | - |
| 1777979868 | 22.22° C | 83% | 1020.5 hPa | - | - | - | - |
| 1777975667 | 20.56° C | 84% | 1020.2 hPa | - | - | - | - |
| 1777972667 | 21.67° C | 85% | 1019.5 hPa | - | - | - | - |
| 1777971468 | 22.22° C | 88% | 1019.2 hPa | - | - | - | - |
| 1777965467 | 21.67° C | 81% | 1018.8 hPa | - | - | - | - |
| 1777964868 | 21.67° C | 82% | 1018.9 hPa | - | - | - | - |
| 1777964269 | 21.67° C | 82% | 1019 hPa | - | - | - | - |
| 1777962468 | 21.67° C | 82% | 1019.1 hPa | - | - | - | - |
* Rain since midnight (hover to see other rain measurements)
** Current wind speed in m/s (hover to see current wind gust speed)